Location: Gazon
(48.1318°N, 1.2708°W)
Time: 23:21:33
(UTC+00:00)

Ariane Rocket - Pass Details

Date: 18 September 2020
Orbit: 760 x 769 km, 98.7° (Epoch: 25 October)

Event Time Altitude Azimuth Distance (km) Brightness Sun altitude
Exits shadow 19:49:58 - 169° (S) 2,374 5.2 -17.0°
Reaches altitude 10° 19:50:10 10° 169° (S) 2,292 5.1 -17.0°
Maximum altitude 19:55:14 78° 256° (WSW) 788 3.1 -17.8°
Drops below altitude 10° 20:00:20 10° 343° (NNW) 2,315 6.0 -18.6°
Sets 20:02:40 0° 345° (NNW) 3,248 6.8 -18.9°
